| time (UTC) | temp C | wind direction | speed KPH | gust KPH | rain 1hr cm | rain 24hr cm | rain mn cm | humidity % | barometer mb |
| 20260507222041 | 11 | 0.0 | 0.0 | 0.00 | 0.00 | 0.00 | 81 | 1012.2 | |
| 20260507221058 | 11 | 0.0 | 0.0 | 0.00 | 0.00 | 0.00 | 82 | 1012.3 | |
| 20260507220035 | 11 | 0.0 | 0.0 | 0.00 | 0.00 | 0.00 | 82 | 1012.2 | |
| 20260507215053 | 11 | 0.0 | 3.2 | 0.00 | 0.00 | 0.00 | 81 | 1012.4 | |
| 20260507214031 | 11 | 0.0 | 0.0 | 0.00 | 0.00 | 0.00 | 81 | 1012.4 | |
| 20260507213029 | 11 | 0.0 | 0.0 | 0.00 | 0.00 | 0.00 | 81 | 1012.4 | |
| 20260507212025 | 11 | 0.0 | 3.2 | 0.00 | 0.00 | 0.00 | 80 | 1012.3 | |
| 20260507211022 | 11 | 0.0 | 3.2 | 0.00 | 0.00 | 0.00 | 80 | 1012.5 | |
| 20260507210020 | 11 | 0.0 | 3.2 | 0.00 | 0.00 | 0.00 | 79 | 1012.4 | |
| 20260507205017 | 11 | 0.0 | 0.0 | 0.00 | 0.00 | 0.00 | 78 | 1012.1 | |
| 20260507204015 | 11 | 0.0 | 0.0 | 0.00 | 0.00 | 0.00 | 78 | 1012.2 | |
| 20260507203112 | 11 | 0.0 | 0.0 | 0.00 | 0.00 | 0.00 | 78 | 1012.0 | |
| 20260507202110 | 11 | 0.0 | 3.2 | 0.00 | 0.00 | 0.00 | 79 | 1012.0 | |
| 20260507201108 | 11 | 0.0 | 0.0 | 0.00 | 0.00 | 0.00 | 79 | 1011.9 | |
| 20260507200106 | 11 | 0.0 | 0.0 | 0.00 | 0.00 | 0.00 | 78 | 1012.0 | |
| 20260507195122 | 11 | 0.0 | 0.0 | 0.00 | 0.00 | 0.00 | 77 | 1011.8 | |
| 20260507194120 | 11 | 0.0 | 3.2 | 0.00 | 0.00 | 0.00 | 76 | 1011.7 | |
| 20260507193057 | 11 | 0.0 | 0.0 | 0.00 | 0.00 | 0.00 | 74 | 1011.6 | |
| 20260507192054 | 11 | 0.0 | 3.2 | 0.00 | 0.00 | 0.00 | 74 | 1011.5 | |
| 20260507191052 | 12 | 0.0 | 0.0 | 0.00 | 0.00 | 0.00 | 74 | 1011.4 | |
| 20260507190050 | 12 | 0.0 | 0.0 | 0.00 | 0.00 | 0.00 | 74 | 1011.5 | |
| 20260507185047 | 12 | 0.0 | 0.0 | 0.00 | 0.00 | 0.00 | 73 | 1011.4 | |
| 20260507184044 | 12 | 0.0 | 3.2 | 0.00 | 0.00 | 0.00 | 73 | 1011.3 | |
| 20260507183042 | 12 | 0.0 | 0.0 | 0.00 | 0.00 | 0.00 | 75 | 1011.3 | |
| 20260507182039 | 11 | 0.0 | 3.2 | 0.00 | 0.00 | 0.00 | 76 | 1011.2 | |
| 20260507181058 | 11 | 0.0 | 3.2 | 0.00 | 0.00 | 0.00 | 78 | 1011.3 | |
| 20260507180035 | 11 | 0.0 | 0.0 | 0.00 | 0.00 | 0.00 | 78 | 1011.2 | |
| 20260507175031 | 11 | 0.0 | 3.2 | 0.00 | 0.00 | 0.00 | 78 | 1011.2 | |
| 20260507174029 | 11 | 0.0 | 0.0 | 0.00 | 0.00 | 0.00 | 79 | 1011.3 | |
| 20260507173026 | 11 | 0.0 | 0.0 | 0.00 | 0.00 | 0.00 | 78 | 1011.5 | |
| 20260507172024 | 11 | 0.0 | 0.0 | 0.00 | 0.00 | 0.00 | 78 | 1011.5 | |
| 20260507171021 | 11 | 0.0 | 0.0 | 0.00 | 0.00 | 0.00 | 77 | 1011.7 | |
| 20260507170020 | 11 | 0.0 | 0.0 | 0.00 | 0.00 | 0.00 | 76 | 1011.6 | |
| 20260507165016 | 11 | 0.0 | 0.0 | 0.00 | 0.00 | 0.00 | 74 | 1011.9 | |
| 20260507164134 | 12 | 0.0 | 0.0 | 0.00 | 0.00 | 0.00 | 70 | 1012.0 | |
| 20260507163111 | 12 | 0.0 | 3.2 | 0.00 | 0.00 | 0.00 | 68 | 1012.0 | |
| 20260507162110 | 12 | 0.0 | 0.0 | 0.00 | 0.00 | 0.00 | 68 | 1012.0 | |
| 20260507161106 | 12 | 0.0 | 0.0 | 0.00 | 0.00 | 0.00 | 66 | 1011.9 | |
| 20260507160103 | 12 | 0.0 | 0.0 | 0.00 | 0.00 | 0.00 | 67 | 1012.0 | |
| 20260507155101 | 12 | 0.0 | 3.2 | 0.00 | 0.00 | 0.00 | 67 | 1012.0 | |
| 20260507154057 | 12 | 0.0 | 0.0 | 0.00 | 0.00 | 0.00 | 66 | 1012.1 | |
| 20260507153054 | 12 | 0.0 | 0.0 | 0.00 | 0.00 | 0.00 | 66 | 1012.2 | |
| 20260507152112 | 12 | 0.0 | 3.2 | 0.00 | 0.00 | 0.00 | 66 | 1012.2 | |
| 20260507151051 | 12 | 236 | 0.0 | 3.2 | 0.00 | 0.00 | 0.00 | 65 | 1011.9 |
| 20260507150048 | 13 | 203 | 0.0 | 3.2 | 0.00 | 0.00 | 0.00 | 64 | 1011.6 |
| 20260507145044 | 13 | 225 | 0.0 | 3.2 | 0.00 | 0.00 | 0.00 | 64 | 1011.8 |
| 20260507144041 | 13 | 225 | 0.0 | 3.2 | 0.00 | 0.00 | 0.00 | 64 | 1011.7 |
| 20260507143039 | 13 | 225 | 0.0 | 3.2 | 0.00 | 0.00 | 0.00 | 65 | 1012.1 |
| 20260507142036 | 13 | 246 | 0.0 | 3.2 | 0.00 | 0.00 | 0.00 | 66 | 1012.1 |
| 20260507141035 | 12 | 208 | 0.0 | 3.2 | 0.00 | 0.00 | 0.00 | 66 | 1012.0 |
| 20260507140031 | 12 | 232 | 0.0 | 3.2 | 0.00 | 0.00 | 0.00 | 67 | 1012.4 |
| 20260507135048 | 12 | 248 | 1.6 | 6.4 | 0.00 | 0.00 | 0.00 | 68 | 1012.1 |
| 20260507134026 | 12 | 219 | 0.0 | 3.2 | 0.00 | 0.00 | 0.00 | 67 | 1012.3 |
| 20260507133023 | 12 | 220 | 1.6 | 3.2 | 0.00 | 0.00 | 0.00 | 67 | 1012.2 |
| 20260507132022 | 12 | 236 | 1.6 | 3.2 | 0.00 | 0.00 | 0.00 | 67 | 1012.5 |
| 20260507131019 | 12 | 235 | 0.0 | 3.2 | 0.00 | 0.00 | 0.00 | 68 | 1012.4 |
| 20260507130015 | 12 | 236 | 0.0 | 3.2 | 0.00 | 0.00 | 0.00 | 68 | 1012.5 |
| 20260507125134 | 12 | 248 | 1.6 | 3.2 | 0.00 | 0.00 | 0.00 | 68 | 1012.8 |
| 20260507124112 | 12 | 225 | 0.0 | 3.2 | 0.00 | 0.00 | 0.00 | 69 | 1012.8 |
| 20260507123108 | 11 | 215 | 1.6 | 3.2 | 0.00 | 0.00 | 0.00 | 70 | 1012.9 |
| 20260507122107 | 11 | 0.0 | 3.2 | 0.00 | 0.00 | 0.00 | 72 | 1013.0 | |
| 20260507121104 | 11 | 225 | 0.0 | 6.4 | 0.00 | 0.00 | 0.00 | 72 | 1013.6 |
| 20260507115052 | 10 | 248 | 0.0 | 3.2 | 0.00 | 0.00 | 0.00 | 72 | 1013.6 |
| 20260507114110 | 11 | 225 | 0.0 | 3.2 | 0.00 | 0.00 | 0.00 | 72 | 1013.3 |
| 20260507113048 | 11 | 210 | 0.0 | 3.2 | 0.00 | 0.00 | 0.00 | 73 | 1013.1 |
| 20260507112039 | 11 | 225 | 0.0 | 3.2 | 0.00 | 0.00 | 0.00 | 74 | 1013.0 |
| 20260507111038 | 11 | 234 | 0.0 | 6.4 | 0.00 | 0.00 | 0.00 | 74 | 1013.2 |
| 20260507110029 | 11 | 225 | 0.0 | 3.2 | 0.00 | 0.00 | 0.00 | 73 | 1013.1 |
| 20260507105025 | 11 | 225 | 0.0 | 3.2 | 0.00 | 0.00 | 0.00 | 71 | 1012.4 |
| 20260507104023 | 12 | 200 | 1.6 | 3.2 | 0.00 | 0.00 | 0.00 | 69 | 1012.4 |
| 20260507103114 | 11 | 232 | 1.6 | 3.2 | 0.00 | 0.00 | 0.00 | 69 | 1012.5 |
| 20260507102132 | 12 | 210 | 0.0 | 6.4 | 0.00 | 0.00 | 0.00 | 69 | 1012.6 |
| 20260507101104 | 11 | 230 | 1.6 | 6.4 | 0.00 | 0.00 | 0.00 | 70 | 1012.6 |
| 20260507095059 | 11 | 212 | 1.6 | 3.2 | 0.00 | 0.00 | 0.00 | 70 | 1011.4 |
| 20260507094111 | 11 | 216 | 1.6 | 6.4 | 0.00 | 0.00 | 0.00 | 72 | 1011.4 |
| 20260507093048 | 11 | 235 | 0.0 | 3.2 | 0.00 | 0.00 | 0.00 | 71 | 1011.4 |
| 20260507092040 | 11 | 251 | 0.0 | 6.4 | 0.00 | 0.00 | 0.00 | 72 | 1012.3 |
| 20260507091039 | 11 | 205 | 1.6 | 11.3 | 0.00 | 0.00 | 0.00 | 73 | 1012.8 |
| 20260507090035 | 10 | 231 | 1.6 | 6.4 | 0.00 | 0.00 | 0.00 | 75 | 1012.8 |
| 20260507085028 | 10 | 225 | 1.6 | 6.4 | 0.00 | 0.00 | 0.00 | 76 | 1012.9 |
| 20260507084024 | 10 | 236 | 0.0 | 3.2 | 0.00 | 0.00 | 0.00 | 76 | 1013.0 |
| 20260507083017 | 10 | 231 | 0.0 | 3.2 | 0.00 | 0.00 | 0.00 | 77 | 1012.9 |
| 20260507082114 | 10 | 243 | 1.6 | 3.2 | 0.00 | 0.00 | 0.00 | 77 | 1012.9 |
| 20260507081111 | 10 | 225 | 0.0 | 3.2 | 0.00 | 0.00 | 0.00 | 78 | 1013.0 |
| 20260507080104 | 9 | 225 | 0.0 | 3.2 | 0.00 | 0.00 | 0.00 | 78 | 1013.0 |
| 20260507075101 | 9 | 189 | 0.0 | 3.2 | 0.00 | 0.00 | 0.00 | 79 | 1012.8 |
| 20260507074051 | 8 | 244 | 1.6 | 6.4 | 0.00 | 0.00 | 0.00 | 79 | 1012.9 |
| 20260507073050 | 8 | 0.0 | 3.2 | 0.00 | 0.00 | 0.00 | 80 | 1012.8 | |
| 20260507072106 | 8 | 0.0 | 3.2 | 0.00 | 0.00 | 0.00 | 80 | 1012.7 | |
| 20260507071038 | 8 | 240 | 0.0 | 3.2 | 0.00 | 0.00 | 0.00 | 81 | 1012.9 |
| 20260507070036 | 8 | 225 | 0.0 | 3.2 | 0.00 | 0.00 | 0.00 | 81 | 1012.9 |
| 20260507065027 | 8 | 231 | 0.0 | 3.2 | 0.00 | 0.00 | 0.00 | 81 | 1012.9 |
| 20260507064024 | 8 | 224 | 0.0 | 3.2 | 0.00 | 0.00 | 0.00 | 81 | 1013.0 |
| 20260507063017 | 8 | 225 | 0.0 | 6.4 | 0.00 | 0.00 | 0.00 | 81 | 1012.9 |
| 20260507062115 | 7 | 225 | 0.0 | 6.4 | 0.00 | 0.00 | 0.00 | 81 | 1012.8 |
| 20260507061111 | 7 | 214 | 0.0 | 3.2 | 0.00 | 0.00 | 0.00 | 81 | 1012.9 |
| 20260507060104 | 7 | 214 | 0.0 | 3.2 | 0.00 | 0.00 | 0.00 | 82 | 1012.9 |
| 20260507055100 | 7 | 23 | 0.0 | 6.4 | 0.00 | 0.00 | 0.00 | 83 | 1012.7 |
| 20260507054052 | 7 | 236 | 0.0 | 3.2 | 0.00 | 0.00 | 0.00 | 83 | 1012.7 |
| 20260507053051 | 7 | 255 | 0.0 | 3.2 | 0.00 | 0.00 | 0.00 | 83 | 1012.6 |
| 20260507052047 | 7 | 270 | 0.0 | 6.4 | 0.00 | 0.00 | 0.00 | 83 | 1012.7 |
| 20260507051039 | 6 | 180 | 0.0 | 3.2 | 0.00 | 0.00 | 0.00 | 83 | 1012.7 |
| 20260507050036 | 6 | 225 | 0.0 | 3.2 | 0.00 | 0.00 | 0.00 | 83 | 1012.5 |
| 20260507045029 | 6 | 214 | 0.0 | 6.4 | 0.00 | 0.00 | 0.00 | 82 | 1012.6 |
| 20260507044046 | 6 | 236 | 0.0 | 6.4 | 0.00 | 0.00 | 0.00 | 82 | 1012.6 |
| 20260507043023 | 6 | 207 | 0.0 | 3.2 | 0.00 | 0.00 | 0.00 | 82 | 1012.5 |
| 20260507042116 | 6 | 45 | 0.0 | 3.2 | 0.00 | 0.00 | 0.00 | 81 | 1012.6 |
| 20260507041132 | 6 | 219 | 0.0 | 6.4 | 0.00 | 0.00 | 0.00 | 81 | 1012.5 |
| 20260507040105 | 7 | 215 | 1.6 | 6.4 | 0.00 | 0.00 | 0.00 | 80 | 1012.6 |
| 20260507035121 | 7 | 0.0 | 3.2 | 0.00 | 0.00 | 0.00 | 80 | 1012.6 | |
| 20260507034058 | 7 | 216 | 1.6 | 3.2 | 0.00 | 0.00 | 0.00 | 79 | 1012.5 |
| 20260507033051 | 7 | 0.0 | 3.2 | 0.00 | 0.00 | 0.00 | 79 | 1012.6 | |
| 20260507032108 | 7 | 180 | 0.0 | 3.2 | 0.00 | 0.00 | 0.00 | 78 | 1012.7 |
| 20260507031041 | 7 | 248 | 0.0 | 3.2 | 0.00 | 0.00 | 0.00 | 79 | 1012.6 |
| 20260507030057 | 7 | 214 | 0.0 | 3.2 | 0.00 | 0.00 | 0.00 | 79 | 1012.7 |
| 20260507025035 | 7 | 240 | 0.0 | 3.2 | 0.00 | 0.00 | 0.00 | 78 | 1012.8 |
| 20260507024027 | 7 | 263 | 0.0 | 3.2 | 0.00 | 0.00 | 0.00 | 78 | 1012.7 |
| 20260507023025 | 7 | 23 | 0.0 | 3.2 | 0.00 | 0.00 | 0.00 | 78 | 1012.8 |
| 20260507022017 | 7 | 219 | 0.0 | 6.4 | 0.00 | 0.00 | 0.00 | 78 | 1012.8 |
| 20260507021115 | 7 | 225 | 0.0 | 3.2 | 0.00 | 0.00 | 0.00 | 77 | 1012.9 |
| 20260507020111 | 7 | 230 | 0.0 | 6.4 | 0.00 | 0.00 | 0.00 | 77 | 1012.7 |
| 20260507015123 | 7 | 225 | 0.0 | 3.2 | 0.00 | 0.00 | 0.00 | 77 | 1013.0 |
| 20260507014101 | 7 | 252 | 0.0 | 3.2 | 0.00 | 0.00 | 0.00 | 77 | 1013.0 |
| 20260507013052 | 7 | 238 | 1.6 | 9.7 | 0.00 | 0.00 | 0.00 | 76 | 1013.0 |
| 20260507012049 | 7 | 13 | 0.0 | 6.4 | 0.00 | 0.00 | 0.00 | 76 | 1013.1 |
| 20260507011047 | 8 | 206 | 0.0 | 3.2 | 0.00 | 0.00 | 0.00 | 76 | 1013.0 |
| 20260507010039 | 8 | 233 | 1.6 | 9.7 | 0.00 | 0.00 | 0.00 | 75 | 1013.0 |
| 20260507005036 | 8 | 182 | 0.0 | 6.4 | 0.00 | 0.00 | 0.00 | 75 | 1013.0 |
| 20260507004028 | 8 | 347 | 0.0 | 11.3 | 0.00 | 0.00 | 0.00 | 75 | 1013.0 |
| 20260507003045 | 8 | 244 | 1.6 | 11.3 | 0.00 | 0.00 | 0.00 | 75 | 1013.0 |
| 20260507002023 | 8 | 225 | 0.0 | 3.2 | 0.00 | 0.00 | 0.00 | 75 | 1013.0 |
| 20260507001114 | 8 | 203 | 0.0 | 9.7 | 0.00 | 0.00 | 0.00 | 75 | 1013.0 |
| 20260507000112 | 8 | 249 | 0.0 | 6.4 | 0.00 | 0.00 | 0.00 | 75 | 1013.0 |
| 20260506235104 | 8 | 238 | 0.0 | 9.7 | 0.00 | 0.00 | 0.00 | 76 | 1013.1 |
| 20260506234102 | 7 | 247 | 1.6 | 12.9 | 0.00 | 0.00 | 0.00 | 76 | 1013.0 |
| 20260506233059 | 7 | 30 | 1.6 | 6.4 | 0.00 | 0.00 | 0.00 | 76 | 1013.0 |
| 20260506232050 | 7 | 79 | 0.0 | 6.4 | 0.00 | 0.00 | 0.00 | 77 | 1013.0 |
| 20260506231048 | 7 | 267 | 0.0 | 6.4 | 0.00 | 0.00 | 0.00 | 76 | 1013.1 |
| 20260506230040 | 7 | 0 | 0.0 | 3.2 | 0.00 | 0.00 | 0.00 | 76 | 1013.0 |
| 20260506225037 | 7 | 0.0 | 3.2 | 0.00 | 0.00 | 0.00 | 76 | 1013.1 | |
| 20260506224035 | 7 | 45 | 0.0 | 3.2 | 0.00 | 0.00 | 0.00 | 76 | 1013.0 |
| 20260506223108 | 8 | 56 | 0.0 | 6.4 | 0.00 | 0.00 | 0.00 | 75 | 1012.9 |